Regional Weather Roundup
Issued by NWS

Home | Current Version | Previous Version | Graphics & Text | Print | Product List | Glossary Off
Versions: 1 2 3 4 5 6 7 8 9 10 11 12 13 14 15 16 17 18 19 20 21 22 23 24 25 26 27 28 29 30 31 32 33 34 35 36 37 38 39 40 41 42 43 44 45 46 47 48 49 50

399
ASUS43 KMKX 281700
RWRWI

WISCONSIN REGIONAL WEATHER ROUNDUP
NATIONAL WEATHER SERVICE MILWAUKEE/SULLIVAN WI
1200 PM CDT WED JUN 28 2017

NOTE: "FAIR" INDICATES FEW OR NO CLOUDS BELOW 12,000 FEET WITH NO
SIGNIFICANT WEATHER AND/OR OBSTRUCTIONS TO VISIBILITY.

WIZ001-002-006>008-014>016-023>028-281800-
NORTHWEST WISCONSIN

CITY           SKY/WX    TMP DP  RH WIND       PRES   REMARKS
SUPERIOR ARPT  NOT AVBL
ASHLAND        HVY RAIN  62  58  86 S8        29.67F FOG
HAYWARD        LGT RAIN  61  58  90 S10       29.66F
SIREN          LGT RAIN  64  62  95 SE9       29.60F
CUMBERLAND     CLOUDY    59  59 100 SE7       29.65F
RICE LAKE      CLOUDY    63  61  95 SE8       29.66F
CHETEK         CLOUDY    63  63  99 SE8       29.67F
LADYSMITH      LGT RAIN  61  59  92 S7        29.71F
EAU CLAIRE     NOT AVBL
MENOMONIE      LGT RAIN  66  65  94 E10       29.64F
NEW RICHMOND   LGT RAIN  66  64  94 SE10G17   29.61F
OSCEOLA        DRIZZLE   67  67 100 SE12      29.61F
$$

WIZ003>005-009-010-017-018-281800-
NORTH CENTRAL WISCONSIN

CITY           SKY/WX    TMP DP  RH WIND       PRES   REMARKS
MANITOWISH WTR CLOUDY    60  58  92 S7        29.74F
ARBOR VITAE    CLOUDY    62  56  82 S10       29.76R
WOODRUFF       CLOUDY    62  56  82 S10       29.76R
RHINELANDER    LGT RAIN  61  59  93 S9        29.78R
EAGLE RIVER    CLOUDY    59  57  94 S7        29.76R
LAND O LAKES   CLOUDY    61  56  83 S8        29.77S
PHILLIPS       LGT RAIN  60  59  97 SE7       29.71F
TOMAHAWK       NOT AVBL
MEDFORD        RAIN      58  57  96 SE6       29.74F
MERRILL        DRIZZLE   61  60  97 SE6       29.78S
$$

WIZ029-030-035-036-043>047-281800-
CENTRAL WISCONSIN

CITY           SKY/WX    TMP DP  RH WIND       PRES   REMARKS
WAUSAU         RAIN      61  59  93 SE10      29.76S FOG
MOSINEE        LGT RAIN  61  59  94 SE10      29.79S
MARSHFIELD     RAIN      62  60  93 S7        29.74S FOG
STEVENS POINT  RAIN      60  59  98 SE7       29.79S
WAUPACA        RAIN      66  61  81 S5        29.80S
WAUTOMA        LGT RAIN  64  62  93 S7        29.79S
WISC RAPIDS    RAIN      63  62  97 S7        29.77F FOG
CAMP DOUGLAS   NOT AVBL
$$

WIZ011>013-019>022-031-037>040-048>050-281800-
NORTHEAST WISCONSIN

CITY           SKY/WX    TMP DP  RH WIND       PRES   REMARKS
ANTIGO         CLOUDY    60  57  89 S12G17    29.81R
SHAWANO        DRIZZLE   66  59  77 S3        29.79S
OCONTO         CLOUDY    65  59  80 SE9       29.80F
STURGEON BAY     N/A     63  56  78 S17G24    29.82F
GREEN BAY      LGT RAIN  66  61  84 S16G23    29.80F
MANITOWOC      NOT AVBL
APPLETON       LGT RAIN  64  57  77 MISG      29.80R
CLINTONVILLE   LGT RAIN  63  57  82 S7        29.81R
OSHKOSH        LGT RAIN  65  60  84 S14G22    29.81R
$$

WIZ032>034-041-042-053>061-281800-
SOUTHWEST WISCONSIN

CITY           SKY/WX    TMP DP  RH WIND       PRES   REMARKS
LA CROSSE      CLOUDY    71  67  87 S16G22    29.71F
SPARTA         RAIN      64  63  97 SW10G16   29.75R
VIROQUA        CLOUDY    65  65 100 S16G25    29.77R
BOSCOBEL       LGT RAIN  69  66  90 S9        29.79S
PRAIRIE DU CHI LGT RAIN  68  64  88 CALM      29.78R
PLATTEVILLE    CLOUDY    67  67 100 S23       29.82R
$$

WIZ056-057-062-063-064-067-068-281800-
SOUTH CENTRAL WISCONSIN

CITY           SKY/WX    TMP DP  RH WIND       PRES   REMARKS
REEDSBURG      DRIZZLE   64  64 100 S20       29.77F
BARABOO/DELLS  DRIZZLE   64  61  92 S14       29.78F
LONE ROCK      CLOUDY    67  64  90 S12G22    29.81R
MINERAL POINT  CLOUDY    64  64 100 S12G20    29.82R
MADISON        LGT RAIN  64  62  93 S13       29.82S
MIDDLETON      CLOUDY    65  64  94 SW18G25   29.82S
WATERTOWN      CLOUDY    62  62 100 S13G22    29.84R
MONROE         CLOUDY    63  61  94 S20G28    29.83F
JANESVILLE     CLOUDY    64  64 100 S15       29.86R
$$

WIZ051-052-058>065-066-070>072-281800-
SOUTHEAST WISCONSIN

CITY           SKY/WX    TMP DP  RH WIND       PRES   REMARKS
MILWAUKEE      LGT RAIN  64  59  83 S20G31    29.84F
WAUKESHA       LGT RAIN  61  57  88 S13G21    29.86F
MILWAUKEE/TIMM NOT AVBL
RACINE         LGT RAIN  63  57  81 S15G22    29.87F
KENOSHA        CLOUDY    63  59  87 S15G26    29.87F FOG
FOND DU LAC    LGT RAIN  65  59  81 S14       29.83R
SHEBOYGAN      CLOUDY    63  60  90 S12G21    29.82F
WEST BEND      CLOUDY    63  59  88 S13G20    29.83F
JUNEAU         CLOUDY    61  59  91 S10G21    29.87R
$$

LSZ147-162-281800-
LAKE SUPERIOR

STATION/POSITION TIME  TEMP    WIND        PRES    WAVE
                       AIR SEA DIR/SP/G            HT/PER
                 (UTC) (F)     (DEG/KT/KT) (MB)    (FT/S)
W MID LAKE BUOY  1550   45 39   80/  8/  8 1006.4F   1
DEVILS ISLAND    1600   56      CALM  /  2 1006.0R
SAXON HARBOR     1640   66     190/  2/  7 1004.4F
$$

LMZ867-665-643>646-281800-
LAKE MICHIGAN

STATION/POSITION TIME  TEMP    WIND        PRES    WAVE
                       AIR SEA DIR/SP/G            HT/PER
                 (UTC) (F)     (DEG/KT/KT) (MB)    (FT/S)
CHAMBERS ISLAND  1640   62     140/  7/ 15 1009.8F
S GREEN BAY BUOY 1630   64     150/ 12/ 16 1009.1F
N MID LAKE BUOY  1550   58 56  170/ 16/ 17 1012.3F   3/ 5
NORTHPORT PIER   1640   60     170/ 12/ 21 1010.8F
KEWAUNEE LAKESHO 1630   55     180/ 14/ 16 1010.2F
SHEBOYGAN LAKESH 1600   54     180/ 18/ 19 1011.6F
PORT WASHINGTON  1630   57     190/  5/ 12 1011.5F
ATWATER BUOY     1509   64 55  200/ 16/ 25 1013.7R
MILWAUKEE LAKESH 1630   63     170/ 16/ 18   N/A
S MID LAKE BUOY  1550   64 61  180/ 19/ 21 1014.8F   4/ 5
KENOSHA   LAKESH 1600   65     190/ 14/ 19 1014.2
$$

TC  - TEMPERATURE IN CELSIUS
VSB - VISIBILITY IN STATUTE MILES
WCI - WIND CHILL INDEX
HX  - HEAT INDEX





USA.gov is the U.S. government's official web portal to all federal, state and local government web resources and services.